Stations météo

réclame
Mon MeteoGroup
Almeria, Espagne (8487): Température de l'air & dewpoint: 29.07.2020 18:00:00 - 04.08.2020 18:00:00 (CEST)Almeria, Espagne (8487): Vitesse du vent: 29.07.2020 18:00:00 - 04.08.2020 18:00:00 (CEST)Almeria, Espagne (8487): Direction du vent: 29.07.2020 18:00:00 - 04.08.2020 18:00:00 (CEST)Almeria, Espagne (8487): reduced air pressure: 29.07.2020 18:00:00 - 04.08.2020 18:00:00 (CEST)Almeria, Espagne (8487): visibility: 29.07.2020 18:00:00 - 04.08.2020 18:00:00 (CEST)
Date & Time tt [°C] td [°C] ff [km/h] ff [knt] dd ppp [hPa] vv [km]
04.08.2020 18:00:00 30,4 24,3 22 12 S 1011,7 -
04.08.2020 17:00:00 31,0 24,8 24 13 S 1011,8 50
04.08.2020 16:00:00 31,5 24,6 26 14 SSE 1012,0 -
04.08.2020 15:00:00 33,6 22,6 24 13 SSE 1012,3 -
04.08.2020 14:00:00 33,9 21,6 22 12 SE 1012,7 50
04.08.2020 13:00:00 33,8 20,8 22 12 E 1013,1 -
04.08.2020 12:00:00 33,1 21,7 16 9 E 1013,4 -
04.08.2020 11:00:00 31,7 21,7 22 12 E 1013,4 50
04.08.2020 10:00:00 30,0 22,5 18 10 E 1013,5 -
04.08.2020 09:00:00 28,7 23,1 22 12 ENE 1013,3 -
04.08.2020 08:00:00 26,5 22,1 8 4 N 1013,0 40
04.08.2020 07:00:00 26,0 21,9 9 5 NNE 1012,7 -
04.08.2020 06:00:00 25,8 22,1 8 4 NE 1012,6 -
04.08.2020 05:00:00 26,2 22,1 8 4 N 1012,3 40
04.08.2020 04:00:00 26,4 22,5 11 6 N 1012,5 -
04.08.2020 03:00:00 26,3 22,9 9 5 NNE 1012,7 -
04.08.2020 02:00:00 26,6 23,3 9 5 ENE 1012,9 -
04.08.2020 01:00:00 27,0 23,3 15 8 ENE 1012,9 -
04.08.2020 00:00:00 27,3 23,5 13 7 E 1012,7 -
03.08.2020 23:00:00 26,8 24,5 2 1 S 1012,4 -
03.08.2020 22:00:00 27,0 24,5 4 2 S 1011,6 -
03.08.2020 21:00:00 27,5 24,1 4 2 S 1011,1 -
03.08.2020 20:00:00 28,4 23,9 9 5 SSW 1010,5 20
03.08.2020 19:00:00 29,2 23,8 11 6 S 1010,3 -
03.08.2020 18:00:00 29,3 23,7 9 5 S 1010,4 -
03.08.2020 17:00:00 29,8 23,7 11 6 SSW 1010,8 20
03.08.2020 16:00:00 30,6 24,2 15 8 SSW 1010,9 -
03.08.2020 15:00:00 30,5 24,7 15 8 S 1011,1 -
03.08.2020 14:00:00 30,4 24,6 16 9 S 1011,6 15
03.08.2020 13:00:00 31,0 24,6 18 10 S 1012,1 -
03.08.2020 12:00:00 29,6 24,7 15 8 SW 1011,8 -
03.08.2020 11:00:00 29,6 24,5 18 10 SSW 1011,8 20
03.08.2020 10:00:00 29,3 24,3 11 6 S 1011,6 -
03.08.2020 09:00:00 27,1 23,3 11 6 N 1011,6 -
03.08.2020 08:00:00 25,3 23,2 5 3 N 1011,2 15
03.08.2020 07:00:00 25,2 23,6 9 5 ENE 1010,9 -
03.08.2020 06:00:00 25,6 24,0 13 7 NE 1010,6 -
03.08.2020 05:00:00 26,0 25,0 4 2 WNW 1010,5 9
03.08.2020 04:00:00 26,4 25,3 5 3 SSW 1010,3 -
03.08.2020 03:00:00 26,6 25,1 9 5 WSW 1011,2 -
03.08.2020 02:00:00 26,9 25,6 8 4 SW 1011,8 -
03.08.2020 01:00:00 27,3 26,1 8 4 SW 1012,4 -
03.08.2020 00:00:00 27,1 25,7 8 4 SSW 1012,2 -
02.08.2020 23:00:00 27,2 26,0 8 4 S 1012,1 -
02.08.2020 22:00:00 27,3 25,9 4 2 SW 1011,5 -
02.08.2020 21:00:00 28,2 26,4 5 3 SW 1011,0 -
02.08.2020 20:00:00 29,2 26,3 9 5 SSW 1011,0 25
02.08.2020 19:00:00 30,0 26,2 11 6 SW 1011,4 -
02.08.2020 18:00:00 30,5 26,2 18 10 WSW 1012,0 -
02.08.2020 17:00:00 31,8 25,7 26 14 WSW 1012,4 30
02.08.2020 16:00:00 32,0 25,1 18 10 SW 1012,7 -
02.08.2020 15:00:00 31,7 25,4 21 11 SW 1013,1 -
02.08.2020 14:00:00 32,2 25,6 16 9 SW 1013,5 30
02.08.2020 13:00:00 31,4 26,1 15 8 SW 1013,6 -
02.08.2020 12:00:00 31,0 25,6 9 5 SSE 1013,5 -
02.08.2020 11:00:00 29,7 25,0 8 4 S 1012,4 18
02.08.2020 10:00:00 29,8 24,9 4 2 E 1012,0 -
02.08.2020 09:00:00 27,0 25,0 5 3 ESE 1012,2 -
02.08.2020 08:00:00 25,3 24,1 2 1 N 1012,0 18
02.08.2020 07:00:00 25,1 23,8 2 1 S 1012,1 -
02.08.2020 06:00:00 25,5 24,6 8 4 NNE 1012,1 -
02.08.2020 05:00:00 25,9 24,7 9 5 NE 1012,1 15
02.08.2020 04:00:00 26,4 24,5 4 2 NNW 1012,9 -
02.08.2020 03:00:00 26,6 24,7 0 0 N 1013,8 -
02.08.2020 02:00:00 26,9 25,5 18 10 WSW 1014,6 -
02.08.2020 01:00:00 27,0 25,4 9 5 SW 1014,4 -
02.08.2020 00:00:00 27,4 25,6 5 3 S 1014,2 -
01.08.2020 23:00:00 27,9 25,2 15 8 SSW 1014,1 -
01.08.2020 22:00:00 29,8 23,0 8 4 ENE 1012,7 -
01.08.2020 21:00:00 30,8 24,2 9 5 ENE 1012,1 -
01.08.2020 20:00:00 28,8 24,9 9 5 S 1012,6 35
01.08.2020 19:00:00 30,2 24,6 8 4 S 1012,9 -
01.08.2020 18:00:00 30,4 25,9 9 5 S 1013,6 -
01.08.2020 17:00:00 29,8 25,5 13 7 SSW 1014,1 25
01.08.2020 16:00:00 29,7 25,6 16 9 SSW 1014,8 -
01.08.2020 15:00:00 29,3 25,4 13 7 SSW 1014,9 -
01.08.2020 14:00:00 29,5 25,4 15 8 SSW 1015,1 30
01.08.2020 13:00:00 29,9 25,1 15 8 SSW 1015,4 -
01.08.2020 12:00:00 29,4 25,5 13 7 SSW 1015,6 -
01.08.2020 11:00:00 28,0 25,4 11 6 SSW 1015,6 15
01.08.2020 10:00:00 27,3 25,3 11 6 SSW 1015,6 -
01.08.2020 09:00:00 26,7 25,3 11 6 SW 1015,8 -
01.08.2020 08:00:00 26,2 25,2 9 5 S 1015,3 20
01.08.2020 07:00:00 25,6 24,4 8 4 ENE 1014,1 -
01.08.2020 06:00:00 25,6 24,6 8 4 NE 1014,0 -
01.08.2020 05:00:00 26,2 25,1 4 2 N 1014,2 40
01.08.2020 04:00:00 26,5 25,3 13 7 SW 1014,9 -
01.08.2020 03:00:00 26,4 25,4 16 9 SW 1015,5 -
01.08.2020 02:00:00 26,7 24,9 9 5 E 1015,0 -
01.08.2020 01:00:00 26,9 24,9 4 2 E 1015,3 -
01.08.2020 00:00:00 27,5 25,1 5 3 E 1015,1 -
31.07.2020 23:00:00 27,7 25,5 8 4 SE 1015,0 -
31.07.2020 22:00:00 28,4 25,0 5 3 S 1014,5 -
31.07.2020 21:00:00 29,9 22,3 11 6 WSW 1013,7 -
31.07.2020 20:00:00 29,9 22,4 11 6 SW 1013,4 45
31.07.2020 19:00:00 29,0 25,5 16 9 SSW 1013,6 -
31.07.2020 18:00:00 29,7 25,1 15 8 SSW 1014,0 -
31.07.2020 17:00:00 30,0 24,9 15 8 SSW 1014,5 30
31.07.2020 16:00:00 30,1 25,0 15 8 SSW 1014,9 -
31.07.2020 15:00:00 30,2 25,1 15 8 SSW 1015,0 -
31.07.2020 14:00:00 29,5 25,1 15 8 SSW 1015,2 35
31.07.2020 13:00:00 29,8 25,3 16 9 SSW 1015,4 -
31.07.2020 12:00:00 29,4 24,9 18 10 SW 1015,7 -
31.07.2020 11:00:00 28,7 24,7 15 8 SSW 1015,5 30
31.07.2020 10:00:00 28,2 24,6 11 6 SSW 1015,4 -
31.07.2020 09:00:00 27,6 24,4 8 4 SSW 1015,2 -
31.07.2020 08:00:00 26,4 24,2 9 5 WSW 1014,6 40
31.07.2020 07:00:00 26,0 22,9 8 4 NW 1014,2 -
31.07.2020 06:00:00 26,4 23,1 11 6 W 1013,9 -
31.07.2020 05:00:00 28,0 18,3 9 5 NNW 1013,3 40
31.07.2020 04:00:00 27,5 20,2 9 5 NNE 1013,5 -
31.07.2020 03:00:00 26,4 20,9 11 6 ENE 1014,1 -
31.07.2020 02:00:00 27,0 21,3 8 4 E 1014,5 -
31.07.2020 01:00:00 27,9 22,6 5 3 NNE 1014,9 -
31.07.2020 00:00:00 27,7 23,9 11 6 WSW 1015,2 -
30.07.2020 23:00:00 28,7 22,3 4 2 SW 1014,9 -
30.07.2020 22:00:00 29,1 24,3 18 10 SW 1014,1 -
30.07.2020 21:00:00 32,0 19,3 26 14 ENE 1012,0 -
30.07.2020 20:00:00 33,8 19,1 29 16 ENE 1011,3 50
30.07.2020 19:00:00 35,2 20,0 31 17 E 1011,2 -
30.07.2020 18:00:00 36,3 21,5 22 12 ENE 1011,8 -
30.07.2020 17:00:00 32,7 24,9 18 10 SW 1012,3 50
30.07.2020 16:00:00 35,5 23,7 13 7 S 1012,6 -
30.07.2020 15:00:00 38,5 22,1 26 14 E 1012,4 -
30.07.2020 14:00:00 39,9 19,9 24 13 E 1012,4 50
30.07.2020 13:00:00 39,0 16,6 29 16 E 1012,5 -
30.07.2020 12:00:00 37,9 16,6 13 7 NE 1013,2 -
30.07.2020 11:00:00 33,1 19,6 11 6 NNW 1013,5 -
30.07.2020 10:00:00 30,5 21,6 29 16 ENE 1014,0 -
30.07.2020 09:00:00 29,1 20,8 24 13 ENE 1014,1 -
30.07.2020 08:00:00 26,8 22,8 24 13 ENE 1013,8 50
30.07.2020 07:00:00 26,6 20,1 9 5 E 1013,5 -
30.07.2020 06:00:00 26,5 20,4 8 4 NE 1012,5 -
30.07.2020 05:00:00 28,0 19,2 13 7 NE 1011,8 50
30.07.2020 04:00:00 29,7 20,4 21 11 NNW 1011,5 -
30.07.2020 03:00:00 29,8 20,6 18 10 NNW 1011,2 -
30.07.2020 02:00:00 27,9 22,2 15 8 NNE 1012,7 -
30.07.2020 01:00:00 27,5 22,7 13 7 NNE 1014,2 -
30.07.2020 00:00:00 27,8 22,7 18 10 ESE 1014,7 -
29.07.2020 23:00:00 28,4 22,2 21 11 E 1014,7 -
29.07.2020 22:00:00 29,0 21,2 21 11 E 1013,2 -
29.07.2020 21:00:00 30,1 21,1 31 17 E 1011,8 -
29.07.2020 20:00:00 31,6 21,4 29 16 E 1011,2 40
29.07.2020 19:00:00 33,5 21,0 28 15 ENE 1011,0 -
29.07.2020 18:00:00 35,1 21,6 26 14 E 1011,2 -

tt = Température de l'air
td = dewpoint
ff = Vitesse du vent
dd = Direction du vent
ppp = reduced air pressure
vv = visibility

stations d'obs. à proximité